sat.trackr.live / text

‹ back to catalog

STARLINK-37292

NORAD 68787 · 2026-086X

PAYLOAD ACTIVE UNKNOWN

§ Identity

Operator
Country
US
Launch date
2026-04-19
Launch site
AFWTR
Launch vehicle
Mass (kg)
RCS (m²)

Purposes: comms

External: N2YO · Heavens-Above · Gunter

§ Orbital elements

Epoch: 2026-09-20T01:36:53.543232Z

Period
93.91 min
Inclination
97.2857°
Eccentricity
0.0000494
Mean motion
15.33449075 rev/d
Perigee alt
465.2 km
Apogee alt
465.9 km
Semi-major
6,843.7 km
B*
3.5051e-4
RAAN
298.5769°
Arg perigee
75.0189°
Mean anomaly
285.1108°
Rev number
2,362

§ Raw data

STARLINK-372921 68787U 26086X   26263.06728638  .00011259  00000+0  35051-3 0  99912 68787  97.2857 298.5769 0000494  75.0189 285.1108 15.33449075 23628

JSON: /api/v1/satellites/68787 · /tle

For live sub-satellite position, see the globe view (requires WebGL).

§ Visibility from observer

Set your observer location to see the next 7 days of passes ≥ 10°. The values pass through the URL so the page stays shareable.

No JS? Fill the form by hand. The geolocation button needs JavaScript.